sat.trackr.live / text

‹ back to catalog

STARLINK-11631 [DTC]

NORAD 63195 · 2025-048N

PAYLOAD ACTIVE UNKNOWN

§ Identity

Operator
Country
US
Launch date
2025-03-13
Launch site
AFETR
Launch vehicle
Mass (kg)
RCS (m²)

Purposes: comms

External: N2YO · Heavens-Above · Gunter

§ Orbital elements

Epoch: 2026-09-20T22:31:35.910912Z

Period
91.67 min
Inclination
42.9994°
Eccentricity
0.0001335
Mean motion
15.70870151 rev/d
Perigee alt
355.5 km
Apogee alt
357.3 km
Semi-major
6,734.5 km
B*
1.2859e-3
RAAN
223.4566°
Arg perigee
263.8268°
Mean anomaly
96.2448°
Rev number
8,922

§ Raw data

STARLINK-11631 [DTC]1 63195U 25048N   26263.93861008  .00168136  00000+0  12859-2 0  99982 63195  42.9994 223.4566 0001335 263.8268  96.2448 15.70870151 89227

JSON: /api/v1/satellites/63195 · /tle

For live sub-satellite position, see the globe view (requires WebGL).

§ Visibility from observer

Set your observer location to see the next 7 days of passes ≥ 10°. The values pass through the URL so the page stays shareable.

No JS? Fill the form by hand. The geolocation button needs JavaScript.